Time,TemperatureF,DewpointF,PressureIn,WindDirection,WindDirectionDegrees,WindSpeedMPH,WindSpeedGustMPH,Humidity,HourlyPrecipIn,Conditions,Clouds,dailyrainin,SoftwareType,DateUTC
2013-08-10 06:01:00,51.3,48.4,29.92,WNW,292,0.0,0.0,90,0.00,,,0.00,WUHU21623XXSP,2013-08-10 11:01:00,
2013-08-10 06:06:00,51.4,48.6,29.92,WNW,292,0.0,0.0,90,0.00,,,0.00,WUHU21623XXSP,2013-08-10 11:06:00,
2013-08-10 06:11:00,51.6,48.7,29.92,WNW,292,0.0,0.0,90,0.00,,,0.00,WUHU21623XXSP,2013-08-10 11:11:00,
2013-08-10 06:16:00,51.6,48.7,29.92,WNW,292,0.0,0.0,90,0.00,,,0.00,WUHU21623XXSP,2013-08-10 11:16:00,
2013-08-10 06:21:00,51.6,48.7,29.92,WNW,292,0.0,0.0,90,0.00,,,0.00,WUHU21623XXSP,2013-08-10 11:21:00,
2013-08-10 06:26:00,51.6,48.7,29.92,WNW,292,0.0,0.0,90,0.00,,,0.00,WUHU21623XXSP,2013-08-10 11:26:00,
2013-08-10 06:28:00,52.0,49.1,29.92,WNW,292,0.0,0.0,90,0.00,,,0.00,WUHU21623XXSP,2013-08-10 11:28:00,
2013-08-10 06:59:00,52.9,50.0,29.92,WNW,293,0.0,0.0,90,0.00,,,0.00,WUHU21623XXSP,2013-08-10 11:59:00,
2013-08-10 08:00:00,65.1,60.5,29.93,North,0,0.0,0.0,85,0.00,,,0.00,WUHU21623XXSP,2013-08-10 13:00:00,
2013-08-10 08:05:00,66.6,60.9,29.93,NNW,337,0.0,1.6,82,0.00,,,0.00,WUHU21623XXSP,2013-08-10 13:05:00,
2013-08-10 08:10:00,67.3,61.3,29.93,NW,315,0.0,1.6,81,0.00,,,0.00,WUHU21623XXSP,2013-08-10 13:10:00,
2013-08-10 08:15:00,67.8,61.3,29.93,NW,315,0.0,0.0,80,0.00,,,0.00,WUHU21623XXSP,2013-08-10 13:15:00,
2013-08-10 08:20:00,68.7,61.6,29.93,NW,315,0.0,1.8,78,0.00,,,0.00,WUHU21623XXSP,2013-08-10 13:20:00,
2013-08-10 08:25:00,69.4,61.5,29.92,WNW,292,0.0,1.8,77,0.00,,,0.00,WUHU21623XXSP,2013-08-10 13:25:00,
2013-08-10 08:30:00,70.0,62.0,29.93,ESE,112,0.0,0.0,77,0.00,,,0.00,WUHU21623XXSP,2013-08-10 13:30:00,
2013-08-10 08:35:00,71.2,61.7,29.93,NW,315,0.0,0.0,72,0.00,,,0.00,WUHU21623XXSP,2013-08-10 13:35:00,
2013-08-10 08:40:00,71.6,61.7,29.93,NW,315,0.0,0.0,71,0.00,,,0.00,WUHU21623XXSP,2013-08-10 13:40:00,
2013-08-10 08:45:00,72.1,61.4,29.93,NW,315,0.0,0.0,69,0.00,,,0.00,WUHU21623XXSP,2013-08-10 13:45:00,
2013-08-10 08:50:00,72.7,61.6,29.93,ENE,67,0.0,0.0,69,0.00,,,0.00,WUHU21623XXSP,2013-08-10 13:50:00,
2013-08-10 08:55:00,73.4,62.2,29.93,NNW,337,0.0,0.0,68,0.00,,,0.00,WUHU21623XXSP,2013-08-10 13:55:00,
2013-08-10 09:00:00,73.9,62.4,29.93,NNW,337,0.0,0.0,67,0.00,,,0.00,WUHU21623XXSP,2013-08-10 14:00:00,
2013-08-10 09:05:00,74.5,61.9,29.93,WNW,292,2.0,2.0,65,0.00,,,0.00,WUHU21623XXSP,2013-08-10 14:05:00,
2013-08-10 09:10:00,74.5,61.9,29.93,West,270,3.4,3.4,65,0.00,,,0.00,WUHU21623XXSP,2013-08-10 14:10:00,
2013-08-10 09:15:00,74.3,60.9,29.93,West,270,0.0,3.4,63,0.00,,,0.00,WUHU21623XXSP,2013-08-10 14:15:00,
2013-08-10 09:20:00,74.3,61.3,29.93,SW,225,0.0,0.0,64,0.00,,,0.00,WUHU21623XXSP,2013-08-10 14:20:00,
2013-08-10 09:25:00,75.0,62.0,29.93,SSE,157,0.0,0.0,64,0.00,,,0.00,WUHU21623XXSP,2013-08-10 14:25:00,
2013-08-10 09:30:00,75.4,61.9,29.93,West,270,5.4,5.4,63,0.00,,,0.00,WUHU21623XXSP,2013-08-10 14:30:00,
2013-08-10 09:35:00,75.2,60.4,29.93,WNW,292,0.0,5.4,60,0.00,,,0.00,WUHU21623XXSP,2013-08-10 14:35:00,
2013-08-10 09:40:00,75.4,60.6,29.94,SSW,202,0.0,0.0,60,0.00,,,0.00,WUHU21623XXSP,2013-08-10 14:40:00,
2013-08-10 09:45:00,75.7,60.9,29.94,ESE,112,0.0,0.0,60,0.00,,,0.00,WUHU21623XXSP,2013-08-10 14:45:00,
2013-08-10 09:50:00,76.8,61.8,29.93,ESE,112,0.0,1.6,61,0.00,,,0.00,WUHU21623XXSP,2013-08-10 14:50:00,
2013-08-10 09:55:00,76.8,62.2,29.94,West,270,0.0,1.6,57,0.00,,,0.00,WUHU21623XXSP,2013-08-10 14:55:00,
2013-08-10 10:00:00,76.5,60.1,29.94,WNW,292,0.0,3.4,57,0.00,,,0.00,WUHU21623XXSP,2013-08-10 15:00:00,
2013-08-10 10:05:00,76.3,60.1,29.93,NW,315,0.0,3.4,58,0.00,,,0.00,WUHU21623XXSP,2013-08-10 15:05:00,
2013-08-10 10:10:00,76.1,59.6,29.93,SW,225,0.0,8.5,56,0.00,,,0.00,WUHU21623XXSP,2013-08-10 15:10:00,
2013-08-10 10:15:00,75.9,59.6,29.94,SSW,202,0.0,8.5,57,0.00,,,0.00,WUHU21623XXSP,2013-08-10 15:15:00,
2013-08-10 10:18:00,75.7,59.6,29.94,SSW,202,0.0,0.0,57,0.00,,,0.00,WUHU21623XXSP,2013-08-10 15:18:00,
2013-08-10 10:59:00,73.8,58.3,29.94,SW,225,0.0,0.0,58,0.00,,,0.00,WUHU21623XXSP,2013-08-10 15:59:00,
2013-08-10 11:23:00,74.8,59.6,29.95,WNW,292,3.4,3.4,59,0.00,,,0.00,WUHU21623XXSP,2013-08-10 16:23:00,
2013-08-10 11:28:00,75.0,57.7,29.95,West,270,0.0,4.0,55,0.00,,,0.00,WUHU21623XXSP,2013-08-10 16:28:00,
2013-08-10 11:33:00,74.8,57.6,29.95,SW,225,0.0,4.0,55,0.00,,,0.00,WUHU21623XXSP,2013-08-10 16:33:00,
2013-08-10 11:37:00,74.5,56.7,29.95,West,270,0.0,6.0,54,0.00,,,0.00,WUHU21623XXSP,2013-08-10 16:37:00,
2013-08-10 11:38:00,74.5,56.7,29.95,West,270,0.0,6.0,54,0.00,,,0.00,WUHU21623XXSP,2013-08-10 16:38:00,
2013-08-10 11:59:00,75.9,58.7,29.95,West,270,0.0,0.0,55,0.00,,,0.00,WUHU21623XXSP,2013-08-10 16:59:00,
2013-08-10 12:59:00,73.9,57.9,29.94,WNW,293,3.6,3.6,57,0.00,,,0.00,WUHU21623XXSP,2013-08-10 17:59:00,
2013-08-10 13:59:00,74.5,59.4,29.94,NW,315,3.6,3.6,59,0.00,,,0.00,WUHU21623XXSP,2013-08-10 18:59:00,
2013-08-10 14:59:00,73.6,61.3,29.94,East,90,0.0,0.0,65,0.00,,,0.00,WUHU21623XXSP,2013-08-10 19:59:00,
2013-08-10 15:59:00,73.0,59.4,29.93,East,90,5.8,5.8,62,0.00,,,0.00,WUHU21623XXSP,2013-08-10 20:59:00,
2013-08-10 16:59:00,74.8,59.7,29.92,ESE,113,0.0,0.0,59,0.00,,,0.00,WUHU21623XXSP,2013-08-10 21:59:00,
2013-08-10 17:59:00,73.6,59.5,29.92,South,180,0.0,0.0,61,0.00,,,0.00,WUHU21623XXSP,2013-08-10 22:59:00,
2013-08-10 18:45:00,71.4,58.1,29.91,East,90,0.0,0.0,63,0.00,,,0.00,WUHU21623XXSP,2013-08-10 23:45:00,
2013-08-10 18:50:00,71.2,58.0,29.91,ENE,67,0.0,0.0,63,0.00,,,0.00,WUHU21623XXSP,2013-08-10 23:50:00,
2013-08-10 18:55:00,71.2,58.0,29.92,ENE,67,0.0,0.0,63,0.00,,,0.00,WUHU21623XXSP,2013-08-10 23:55:00,
2013-08-10 19:00:00,71.2,58.4,29.92,ENE,67,0.0,0.0,64,0.00,,,0.00,WUHU21623XXSP,2013-08-11 00:00:00,
2013-08-10 19:05:00,70.9,58.1,29.91,ESE,112,0.0,0.0,64,0.00,,,0.00,WUHU21623XXSP,2013-08-11 00:05:00,
2013-08-10 19:10:00,70.9,58.1,29.91,ESE,112,0.0,0.0,64,0.00,,,0.00,WUHU21623XXSP,2013-08-11 00:10:00,
2013-08-10 19:15:00,70.7,58.3,29.91,ESE,112,0.0,0.0,65,0.00,,,0.00,WUHU21623XXSP,2013-08-11 00:15:00,
2013-08-10 19:20:00,70.5,58.2,29.91,ESE,112,0.0,0.0,65,0.00,,,0.00,WUHU21623XXSP,2013-08-11 00:20:00,
2013-08-10 19:25:00,70.3,58.0,29.91,ENE,67,0.0,0.0,65,0.00,,,0.00,WUHU21623XXSP,2013-08-11 00:25:00,
2013-08-10 19:30:00,70.2,58.2,29.91,ENE,67,0.0,0.0,66,0.00,,,0.00,WUHU21623XXSP,2013-08-11 00:30:00,
2013-08-10 19:35:00,70.0,58.9,29.91,ENE,67,0.0,0.0,68,0.00,,,0.00,WUHU21623XXSP,2013-08-11 00:35:00,
2013-08-10 19:40:00,69.6,58.9,29.91,ENE,67,0.0,0.0,69,0.00,,,0.00,WUHU21623XXSP,2013-08-11 00:40:00,
2013-08-10 19:43:00,69.3,58.6,29.91,ENE,67,0.0,0.0,69,0.00,,,0.00,WUHU21623XXSP,2013-08-11 00:43:00,
2013-08-10 19:59:00,67.6,58.4,29.91,NW,315,0.0,0.0,72,0.00,,,0.00,WUHU21623XXSP,2013-08-11 00:59:00,
2013-08-10 20:59:00,62.8,56.3,29.93,ENE,68,0.0,0.0,79,0.00,,,0.00,WUHU21623XXSP,2013-08-11 01:59:00,
2013-08-10 21:59:00,59.5,54.7,29.93,NW,315,0.0,0.0,84,0.00,,,0.00,WUHU21623XXSP,2013-08-11 02:59:00,
2013-08-10 22:59:00,57.4,53.2,29.93,NW,315,0.0,0.0,86,0.00,,,0.00,WUHU21623XXSP,2013-08-11 03:59:00,
2013-08-10 23:59:00,56.1,52.0,29.93,NW,315,0.0,0.0,86,0.00,,,0.00,WUHU21623XXSP,2013-08-11 04:59:00,